Location: Focicchia
(42.2496°N, 9.2935°E)
Time: 10:52:11
(UTC+00:00)

CZ-2D R/B - Visible Passes

Search period start: 25 September 2020 00:00
Search period end: 05 October 2020 00:00
Orbit: 792 x 845 km, 98.7° (Epoch: 24 September)

Date Brightness Start Highest point End Pass type
(mag) Time Alt. Az. Time Alt. Az. Time Alt. Az.
25 Sep 4.4 01:32:27 10° N 01:33:36 17° N 01:33:36 17° N visible
26 Sep 4.6 01:11:05 10° NNE 01:11:58 15° N 01:11:58 15° N visible
27 Sep 4.9 00:49:51 10° NNE 00:50:20 13° NNE 00:50:20 13° NNE visible
27 Sep 4.5 02:31:14 10° NNW 02:31:39 11° NNW 02:31:39 11° NNW visible
28 Sep 4.5 02:09:18 10° N 02:10:01 13° NNW 02:10:01 13° NNW visible
29 Sep 4.6 01:47:40 10° N 01:48:23 14° N 01:48:23 14° N visible
30 Sep 4.7 01:26:11 10° N 01:26:46 13° N 01:26:46 13° N visible
01 Oct 4.9 01:04:52 10° NNE 01:05:07 11° NNE 01:05:07 11° NNE visible
02 Oct 4.6 02:24:48 10° NNW 02:24:48 10° NNW 02:24:48 10° NNW visible
03 Oct 4.7 02:02:58 10° N 02:03:10 11° N 02:03:10 11° N visible
04 Oct 4.8 01:41:22 10° N 01:41:32 11° N 01:41:32 11° N visible
